Regional Weather Roundup
Issued by NWS Binghamton, NY

Current Version | Previous Version | Text Only | Print | Product List | Glossary On
Versions: 1 2 3 4 5 6 7 8 9 10 11 12 13 14 15 16 17 18 19 20 21 22 23 24 25 26 27
000
ASUS41 KBGM 240810
RWRBGM

REGIONAL WEATHER ROUNDUP
NATIONAL WEATHER SERVICE BINGHAMTON NY
400 AM EDT THU AUG 24 2017

Note: "fair" indicates few or no clouds below 12,000 feet with no
significant weather and/or obstructions to visibility.

* = Station(s) that does not report precipitation, such as rain,
snow, etc, also no thunder or fog.

NYZ009-015>018-022>025-036-037-044>046-055>057-062-240900
...Central New York...

CITY           SKY/WX    TMP DP  RH WIND       PRES   REMARKS
Binghamton     PTCLDY    56  53  90 NW6       29.95S
Cortland       FAIR      54  54 100 W3        29.96R
Dansville      CLEAR     53  50  89 S3        29.99R
Elmira         CLEAR     55  50  83 SW5       29.96S
Seneca Falls   SUNNY     55  52  88 W7        29.96S
Ithaca         CLEAR     54  51  90 W6        29.97R
Hamilton       CLEAR     55  52  88 CALM      29.94R
Hornell        MOCLDY    52  50  93 CALM      30.02S FOG
Monticello     CLEAR     52  50  93 CALM      29.95S
Oneonta        CLEAR     54 N/A N/A CALM      29.95S
Penn Yan       CLEAR     56  50  80 SW5       29.97R
Rome           CLEAR     57  56  96 CALM      29.93R
Sidney         MOCLDY   N/A N/A N/A CALM      29.95S
Syracuse       MOCLDY    58  56  93 SW7       29.93R
$$

PAZ038>040-043-044-047-048-072-240900
...Northeast Pennsylvania...

CITY           SKY/WX    TMP DP  RH WIND       PRES   REMARKS
Hazleton         N/A     52  46  82 CALM      29.98S
Scranton       CLEAR     56  55  97 E3        29.94S
$$
&&
KEY
WCI = Wind Chill Index
VSB = Visibility
HX  = Heat Index
$$




USA.gov is the U.S. government's official web portal to all federal, state and local government web resources and services.